Location: Albert Place
(40.7505°N, 111.9230°W)
Time: 17:14:09
(UTC+00:00)

Cosmos 1570 Rocket - Pass Details

Date: 20 March 2026
Orbit: 759 x 783 km, 74.1° (Epoch: 18 April)

Event Time Altitude Azimuth Distance (km) Brightness Sun altitude
Rises 04:52:45 0° 348° (NNW) 3,236 7.8 -35.2°
Reaches altitude 10° 04:55:19 10° 357° (N) 2,309 6.9 -35.6°
Enters shadow 04:56:29 16° 4° (N) 1,921 6.3 -35.8°
